To NAV CANADA Home Page Login to a new session Search on AWWS site Disclaimer Vers la page française équivalente Tips FAQ What's new on the site To the Forecasts and Observations / NOTAM section To "File a Flight Plan" website Publications and other links Update of the User's profile FIC Telephone Numbers My Weather Data Folder Route Weather Data Regional Weather Data Local Weather Data To the Forecasts and Observations / NOTAM section
Request Generated 04/08/2020 at 08:49:59 UTC . Weather information available at that time is displayed.

METAR/TAF

QUAQTAQ/QC    

LWIS CYHA 080800Z AUTO VRB02KT M15/M17 A3009=
LWIS CYHA 080700Z AUTO 36004KT M14/M16 A3008=
LWIS CYHA 080600Z AUTO 35002KT M14/M15 A3009=

*** REMARK        : Forecast period has ended; this was the last TAF issued
*** REMARQUE : La période de prévision est échue; ceci était le dernier TAF qui a été émis
TAF AMD CYHA 071909Z 0715/0721 FCST CNCLD DUE NO OBS
RMK NXT FCST WILL BE ISSUED AT 081345Z=
Your time UTC time
Weather data provided by Environment Canada and NAV CANADA